Tracking 18840 objects as of 19-November-2017
HD Live streaming from Space Station
objects crossing your sky now

CZ-4B DEB

Track CZ-4B DEB now!
10-day predictions


NORAD ID: 29215
Int'l Code: 2002-024F
Perigee: 852.0 km
Apogee: 1,218.4 km
Inclination: 98.8 °
Period: 105.7 minutes
Semi major axis: 7406 km
RCS: 0.0014 m2 (small)
Launch date: May 15, 2002
Source: People's Republic of China (PRC)
Launch site: Taiyaun Space Center, China (TSC)

Note: This is SATELLITE DEBRIS
aabbcc
Your satellite tracking list
Your tracking list is empty




NASA's NSSDC Master Catalog

Two Line Element Set (TLE):
1 29215U 02024F   17322.60235219 +.00000092 +00000-0 +13597-3 0  9999
2 29215 098.8222 243.0861 0247389 162.8400 321.3096 13.62108230753689
Source of the keplerian elements: AFSPC